Погода в Сорочинске

Погода в Сорочинске : погода сейчас, прогноз погоды и архив. Всё, что Вы хотите узнать о погоде в Сорочинске!

Хотите узнать прогноз погоды в Сорочинске? Тогда Вам сюда: Погода в Сорочинске

Поиск расширенной информации на нашем сайте:

Другие новости

Новости СМИ2

Главная страница сайта

Новости сайта

02.10.2013

Напоминаем, что на нашем новом сайте вы можете получить высокодетализированные прогнозы погоды по пунктам России, СНГ и мира (включающие важные для авиации метеовеличины, такие как направление и скорость ветра, видимость, явления погоды, количество и форма облачности, нижняя и верхняя граница облачности), а также ознакомиться с разнообразными материалами по авиационной метеорологии и подборкой полезных ссылок на эту тему.

Сайт Метеоцентр.Азия посвящён разработке технологий оптимизации авиаметеорологического обслуживания, включая проектирование и перспективное создание нескольких автоматизированных авиаметеорологических систем:
- система выпуска высокодетальных прогностических карт явлений погоды для нижнего воздушного пространства по России и ближнему зарубежью;
- система верификации прогнозов TAF (выпускаемых синоптиками официальных АМСГ РФ и ближнего зарубежья) и AUTOTAF (выпускаемых сайтом Метеоцентр.Азия) - выявление ошибок, онлайн-сопоставление с фактической погодой METAR, автоматическое внесение коррективов в прогнозы при резком отклонении фактической погоды от прогноза, подсчёт оправдываемости прогнозов по элементам и в целом;
- система обработки, анализа и отображения авиаметеорологической информации для применения провайдерами метеорологической информации.

Рекомендуем: шины и диски подбор по марке авто

Погода в Сорочинске - сегодня

Время (UTC), дата Ветер
(°,м/с) 
Видим.   Явления Облачность Т
(°С)
Тd
(°С)
f(%) Тe
(°С)
Pmin
(гПа)
dP
(гПа)
Po
(мм)
O2
(г/м3)
Тmin Tmax R s Состояние
почвы
12 23.02.17 200 (Ю) 4{10}  0500 м  туман{снег}  ?/?  
+0.1 -0.2 98 -2  1007.3  -0.1  744  300           
15 23.02.17 190 (Ю) 2000 м  дымка{туман}  10/10 180 м 
[Ns]
+0.3 -2.7 80 -2  1007.5  -0.3  744  300    +0.5  0.6     
18 23.02.17 190 (Ю) 5{10}  2000 м  дымка{туман}  10/10 180 м 
[St]
+0.4 -2.7 80 -3  1007.5  -0.4  743  299           
21 23.02.17 190 (Ю) 0500 м  туман  ?/?  
+0.1 -2.7 81 -2  1007.5  -0.9  743  299           
00 24.02.17 170 (Ю) 4{11}  2000 м  дымка{туман}  10/10 180 м 
[St]
-0.4 -2.7 84 -3  1004.8  -1  742  300           
03 24.02.17 180 (Ю) 4000 м  слаб. переохл. морось (гололёд) [диам. гололёда 0 мм]  10/10 270 м 
[St]
-0.6 -2.7 86 -4  1003.7  -1.1  741  300  -0.6    0.0  31  равномерный
мокрый или
старый снег
100% 
06 24.02.17 150 (ЮВ) 5{11}  4000 м  дымка{морось}  10/0 средняя 
[As trans]
-1.5 -2.2 95 -5  1003.6  0.1  741  301  -1.7         
09 24.02.17 140 (ЮВ) 5{11}  4000 м  слаб. снег  10/0 средняя 
[Ac As]
-0.9 -2 92 -4  1003.6  741  300           
12 24.02.17 180 (Ю) 20000 м  {снег}  10/10 870 м 
[Ns]
-1.2 -2.3 92 -4  1004.8  1.1  742  300           
15 24.02.17 180 (Ю) 10 км  {снег}  10/5 300 м средняя 
[Frnb|As op]
-1.3 -2.4 92 -4  1005.5  1.4  743  301    -0.6  0.0     
18 24.02.17 200 (Ю) 2000 м  дымка{снег}  10/10 180 м 
[St]
-0.2 -1.1 94 -2  1007.3  1.4  744  300           
21 24.02.17 200 (Ю) 20000 м    10/10 600 м 
[Sc]
-0.3 -1.4 92 -3  1008.6  1.1  745  301           
00 25.02.17 180 (Ю) 10 км  слаб. снег  10/6 300 м средняя 
[Frnb|As op]
-1.7 -2.5 94 -5  1008.9  0.6  745  302           
03 25.02.17 170 (Ю) 4{12}  10 км  слаб. снег{дождь}  10/10 720 м 
[Ns]
+0.2 -1 92 -2  1006.4  -2.8  743  299  -2    0.1  31  равномерный
мокрый или
старый снег
100% 
06 25.02.17 210 (ЮЗ) 9-15{18}  4000 м  слаб. морось{снег, дождь}  10/10 400 м 
[St]
+1.1 -0 92 -3  1004.9  -1.4  742  298           
09 25.02.17 220 (ЮЗ) 7-13{17}  2000 м  дымка{морось}  10/10 180 м 
[Ns]
+1.3 +1.2 99 -2  1004.5  -0.3  742  297           
12 25.02.17 190 (Ю) 5{13}  0200 м  туман{морось}  ?/?  
+1.1 +1 99 -2  1004.6  0.1  742  298           
15 25.02.17 120 (ЮВ) 0500 м  туман  ?/?  
+1.5 +0.9 96 +2  1005.3  0.8  743  297    +1.5  0.0     
18 25.02.17 180 (Ю) 0500 м  туман  ?/?  
+1 +0.5 96 1004.1  -1.2  742  298           
21 25.02.17 200 (Ю) 8-12{13}  0500 м  туман  ?/?  
+1.5 +0.9 96 -2  1001.2  -2.8  740  296           
00 26.02.17 220 (ЮЗ) 4{13}  4000 м  дымка{туман}  10/10 400 м 
[Ns]
+1.9 +1.1 94 999.2  -2.2  738  295           
03 26.02.17 240 (ЮЗ) 4000 м  снег  10/10 450 м 
[Ns]
+0.5 -0.2 95 -2  1000.8  1.5  739  297  +0.5    25  равномерный
мокрый или
старый снег
100% 
06 26.02.17 270 (З) 1000 м  сильн. снег  10/0 средняя 
[As op]
-0.7 -0 100 -4  1002.9  1.9  741  299  -0.7         
09 26.02.17 280 (З) 4{11}  20000 м  в посл. час снег  6/6 600 м кучево-дожд. 
[Cb cap]
-1.1 -2.7 89 -4  1005.8  2.7  743  301           
12 26.02.17 260 (З) 20000 м  {снег}  8/8 1000 м средняя 
[Sc diur, vesp|Ac trans]
-1.6 -5 78 -5  1008.1  2.3  744  302           
Время (UTC), дата Ветер
(°,м/с) 
Видим.   Явления Облачность Т
(°С)
Тd
(°С)
f(%) Тe
(°С)
Pmin
(гПа)
dP
(гПа)
Po
(мм)
O2
(г/м3)
Тmin Tmax R s Состояние
почвы

Для получения пояснительной информации подведите курсор к названию столбца.

ПОГОДА в Сорочинске - архив

Всё, что Вы хотите узнать о погоде в Сорочинске - удобно и подробно!

Выберите нужную дату (начиная с 1 января 2015* года) и нажмите кнопку "Найти".
Будут отображены архивные сводки погоды по пункту Сорочинск, начиная с указанной даты.


Отображать данные в формате CSV (для использования в таблицах Excel)


Внимание! Наш архив погоды предназначен исключительно для личного некоммерческого использования в познавательных целях. Если Вам необходимы официальные справки о состоянии погоды (для производственных, юридических, коммерческих и т.п. целей), обращайтесь в органы Росгидромета.

*Примечание: данная дата относится к архиву по метеостанциям СССР (Россия, СНГ, Балтия).
Архив по метеостанциям Зарубежной Европы и Азии (кроме Китая) хранится 10 дней, по другим регионам земного шара (Китай, Африка, Америка, Австралия, Океания) - 1 день.

Сорочинск - район местоположения метеостанции


Название, широта, долгота, высота метеостанции:
Сорочинск 52.4°ш. 53.1°д. 123 м над ур. моря [Российская Федерация]

Дополнительная информация

В oтличие oт бoльшинства пoгoдных сайтoв мы публикуем пoдрoбную метеoинфoрмацию в детальнoм прoфессиoнальнoм фoрмате.

Характеристики температуры и влажнoсти вoздуха измеряются на высoте 2 м в тени вдали oт зданий и деревьев.
Скoрoсть ветра измеряется на высoте 10 м (на урoвне рoста челoвека скoрoсть ветра ниже в 1.5-2 раза). Если метеoстанция нахoдится в гoрoде или в лесу, тo скoрoсть ветра занижена на 2-4 м/с пo сравнению с oткрытым местoм. Скoрoсть ветра над акватoриями крупных рек и oзёр, а также на вершинах хoлмoв на 2-5 м/с выше, чем в oбычных услoвиях.
Атмoсфернoе давление в разных тoчках местнoсти мoжет значительнo oтличаться oт давления на метеoстанции, в зависимoсти oт услoвий рельефа (при пoдъёме на 10 м давление пoнижается примернo на 1 мм рт.ст.).